Regional Weather Roundup
Issued by NWS

Home | Current Version | Previous Version | Graphics & Text | Print | Product List | Glossary On
Versions: 1 2 3 4 5 6 7 8 9 10 11 12 13 14 15 16 17 18 19 20 21 22 23 24 25 26 27 28 29 30 31 32 33 34 35 36 37 38 39 40 41 42 43 44 45 46 47 48 49 50
000
ASUS43 KFSD 270402
RWRSD

WEATHER ROUNDUP FOR SOUTH DAKOTA
NATIONAL WEATHER SERVICE SIOUX FALLS SD
1100 PM CDT TUE AUG 26 2014

NOTE: "FAIR" INDICATES FEW OR NO CLOUDS BELOW 12,000 FEET WITH NO
SIGNIFICANT WEATHER AND/OR OBSTRUCTIONS TO VISIBILITY.


SDZ001>005-009-010-012>017-270500-
NORTHWEST AND NORTH CENTRAL SOUTH DAKOTA

CITY           SKY/WX    TMP DP  RH WIND       PRES   REMARKS
BUFFALO          N/A     55  53  93 E10       30.11R
FAITH            N/A     57  53  86 E6        30.16R
MOBRIDGE       CLOUDY    59  56  89 E3        30.15R
$$

SDZ012>016-024>037-041>051-057-063-072>074-270500-
SOUTHWEST AND SOUTH CENTRAL SOUTH DAKOTA

CITY           SKY/WX    TMP DP  RH WIND       PRES   REMARKS
RAPID CTY ARPT PTCLDY    63  55  75 SE8       30.16R
PIERRE         PTCLDY    59  55  87 NE12      30.14R
CUSTER         CLOUDY    60  55  83 N3        30.27R
ELLSWORTH AFB  CLOUDY    65  56  72 E8        30.16R
PHILIP         PTCLDY    63  54  72 NE12      30.12R
PINE RIDGE     LGT RAIN  57  57 100 MISG      30.14S FOG
WINNER         FAIR      66  58  75 E9        30.12S
$$

SDZ004>011-016>023-039-040-270500-
NORTHEAST SOUTH DAKOTA

CITY           SKY/WX    TMP DP  RH WIND       PRES   REMARKS
ABERDEEN       CLOUDY    59  56  89 CALM      30.18R
WATERTOWN      CLOUDY    58  55  90 E6        30.19R
SISSETON         N/A     60  58  92 CALM      30.18R
$$

SDZ017-020-022-023-036>040-048>070-270500-
SOUTHEAST SOUTH DAKOTA

CITY           SKY/WX    TMP DP  RH WIND       PRES   REMARKS
SIOUX FALLS    MOCLDY    65  56  72 SE6       30.18R
HURON          CLEAR     59  57  93 E6        30.16R
CHAMBERLAIN    CLOUDY    61  57  87 E6        30.14S
MITCHELL       PTCLDY    62  59  90 SE5       30.16R
YANKTON        PTCLDY    63  59  88 NE6       30.16R
$$

ABBREVIATIONS USED IN REMARKS
   TC - TEMPERATURE IN CELSIUS
  WCI - WIND CHILL INDEX
   HX - HEAT INDEX
  VSB - VISIBILITY




USA.gov is the U.S. government's official web portal to all federal, state and local government web resources and services.